Regional Weather Roundup
Issued by NWS Upton, NY

Current Version | Previous Version | Text Only | Print | Product List | Glossary Off
Versions: 1 2 3 4 5 6 7 8 9 10 11 12 13 14 15 16 17 18 19 20 21 22 23 24 25 26 27 28 29 30 31 32 33 34 35 36 37 38 39 40 41 42 43 44 45 46 47 48 49 50

670
ASUS41 KOKX 142308
RWROKX

REGIONAL WEATHER ROUNDUP
NATIONAL WEATHER SERVICE NEW YORK NY
600 PM EST THU DEC 14 2017

NOTE: "FAIR" INDICATES FEW OR NO CLOUDS BELOW 12,000 FEET WITH NO
SIGNIFICANT WEATHER AND/OR OBSTRUCTIONS TO VISIBILITY.

NYZ071-072-176-178-NJZ106-104-150000-
NEW YORK CITY METRO AREA

CITY           SKY/WX    TMP DP  RH WIND       PRES   REMARKS
Central Park   CLEAR     27   8  44 NW8       29.98R WCI  19
Bronx Bot Gard   N/A     28   9  43 NW5       29.98R WCI  23
Bronx Lehman C NOT AVBL
LaGuardia APRT PTCLDY    29  10  45 NW14      29.97R WCI  18
Queens College NOT AVBL
Kennedy INTL   PTCLDY    28   9  44 NW16G28   29.98R WCI  16
Breezy Point     N/A    N/A N/A N/A NW14G21     N/A
Brooklyn Coll  NOT AVBL
Staten Island  NOT AVBL
Newark/Liberty PTCLDY    27   9  46 NW13G24   29.98R WCI  16
Teterboro      CLEAR     26   9  48 NW9       29.97R WCI  17
$$

NYZ177-179-078>081-150000-
LONG ISLAND NEW YORK

CITY           SKY/WX    TMP DP  RH WIND       PRES   REMARKS
Jones Beach      N/A    N/A N/A N/A NW13G20     N/A
Wantagh        NOT AVBL
Matinecock PT    N/A    N/A N/A N/A NW26G33     N/A
Farmingdale    CLEAR     26   9  48 NW10      29.95R WCI  16
MacArthur/ISP  PTCLDY    26   9  48 NW14      29.93R WCI  14
Shirley        CLEAR     27  12  53 NW13      29.93R WCI  16
Mt Sinai Harb    N/A    N/A N/A N/A NW12G20     N/A
Westhampton    CLEAR     26  11  52 NW10      29.92R WCI  16
East Hampton   FAIR      27  13  56 NW7       29.90R WCI  19
Southold       NOT AVBL
Montauk          N/A     30  12  47 NW14G23   29.90R WCI  19
$$

NYZ052-065-067-150000-
HUDSON VALLEY

CITY           SKY/WX    TMP DP  RH WIND       PRES   REMARKS
White Plains   PTCLDY    24   6  46 W12G20    29.93R WCI  13
Larchmont Harb   N/A    N/A N/A N/A W14G20      N/A
Croton On Huds   N/A    N/A N/A N/A W16         N/A
Somers         NOT AVBL
Brewster       NOT AVBL
Newburgh       CLEAR     19   7  58 W17       29.94R WCI   4
Montgomery     CLEAR     21   3  45 W7        29.95R WCI  12
Otisville      NOT AVBL
Warwick        NOT AVBL
Suffern        NOT AVBL
Poughkeepsie   CLEAR     22   3  44 W9        29.95R WCI  12
Albany         PTCLDY    16   3  56 W9        29.96R WCI   4
$$

NJZ001-105-106-008-010-013-015-019>022-104-150000-
NEW JERSEY

CITY           SKY/WX    TMP DP  RH WIND       PRES   REMARKS
Newark/Liberty PTCLDY    27   9  46 NW13G24   29.98R WCI  16
Teterboro      CLEAR     26   9  48 NW9       29.97R WCI  17
Caldwell       CLEAR     24   7  48 NW7       29.98R WCI  16
Somerville     CLEAR     24   8  50 CALM      29.98R
Linden         FAIR      27   9  45 NW9       29.98R WCI  18
Perth Amboy      N/A    N/A N/A N/A NW15        N/A
Sussex         CLEAR     21   6  52 VRB3      29.96R
Andover          N/A     22   5  48 CALM      29.96R
Trenton        CLEAR     28  11  48 NW5       29.98R WCI  23
Millville      CLEAR     28  16  60 NW5       30.01R WCI  23
Atlantic City  CLEAR     29  14  53 W7        30.01R WCI  22
Wrightstown    CLEAR     27  11  51 NW9       29.96R WCI  18
Toms River     CLEAR     26  15  63 NW5       29.99R WCI  20
Belmar         CLEAR     27  14  58 W8        29.98R WCI  19
$$

PAZ047>061-062-071-150000-
EASTERN PENNSYLVANIA

CITY           SKY/WX    TMP DP  RH WIND       PRES   REMARKS
Philadelphia   PTCLDY    31  10  41 NW8       30.02R WCI  23
Allentown      CLEAR     25   7  46 W6        29.98R WCI  18
Scranton       CLEAR     19   5  54 NW7       29.96R WCI  10
$$

CTZ002-004>006-009-010-012-RIZ004-006-007-MAZ004-011-015-150000-
SOUTHERN NEW ENGLAND
 IN CT

CITY           SKY/WX    TMP DP  RH WIND       PRES   REMARKS
Bradley INTL   PTCLDY    19   3  49 NW14      29.92R WCI   6
Hartford       CLEAR     23   4  44 NW7       29.93R WCI  15
Danbury        CLEAR     24   3  40 VRB6      29.93R WCI  17
Wtrbury/Oxford CLEAR     21   5  50 NW5       29.89R WCI  15
Norwalk Harbor   N/A    N/A N/A N/A W14         N/A
Bridgeport     CLEAR     26   7  44 W14       29.94R WCI  14
Meriden        CLEAR     23   5  46 NW6       29.93R WCI  16
New Haven      CLEAR     27   6  41 NW6       29.93R WCI  20
Chester        FAIR      23   3  42 NW6       29.89R WCI  16
Groton         CLEAR     25   7  46 NW10      29.91R WCI  15
Wilimantic     CLEAR     22   3  44 NW7       29.91R WCI  13

 IN RI

CITY           SKY/WX    TMP DP  RH WIND       PRES   REMARKS
Providence     PTCLDY    23   3  42 NW10      29.88R WCI  12
Block Island   CLEAR     26  10  50 NW15G25   29.88R WCI  14
Westerly       CLEAR     25   5  42 VRB5      29.90R WCI  19
 IN MA

CITY           SKY/WX    TMP DP  RH WIND       PRES   REMARKS
Boston         CLEAR     26   4  38 W16G24    29.84R WCI  14
Worcester      CLEAR     16  -2  45 W13       29.79R WCI   2
Westfield      CLEAR     18   2  49 NW12      29.91R WCI   5
Provincetown   CLEAR     28  11  48 W17G25    29.83R WCI  16
Nantucket      PTCLDY    27  15  61 W12       29.83R WCI  17
$$

ANZ330-335-338-340-345-350-353-355-150000-
COASTAL MARINE OBSERVATIONS


STATION/POSITION TIME  SKY/WX   TEMP    WIND        PRES    VSBY  WAVE
                                AIR SEA DIR/SP/G                  HT/PER
                 (UTC)          (F)     (DEG/KT/KT) (MB)    (MI)  (FT/S)
NY HARB ENTRANCE 2150            33 53  300/ 23/ 29 1011.8          4/ 4
20 S FIRE ISLAND 2150            34 51  310/ 21/ 29 1011.7          6/ 5
GREAT SOUTH BAY  NOT AVBL
HUDSON CANYON    2150            38 56  320/ 23/ 29 1010.8          9/ 7
KINGS POINT      NOT AVBL
EXECUTION ROCKS  NOT AVBL
WESTERN LI SOUND NOT AVBL
CENTRAL LI SOUND NOT AVBL
ROBBINS REEF     NOT AVBL
$$


>>>>>>>>>>>>>>>>>>>>>>>>>>>> KEY <<<<<<<<<<<<<<<<<<<<<<<<<<<
>                                                          <
>     SKY/WX - Sky Condition/Present Weather               <
>     TMP    - Temperature in Fahrenheit                   <
>     DP     - Dew Point in Fahrenheit                     <
>     RH     - Relative Humidity in Percent                <
>     WIND   - Direction (from) and Speed in MPH           <
>     PRES   - Mean Sea Level Pressure (inches of Hg)      <
>     WCI    - Wind Chill Index                            <
>     VSB    - VISIBILITY IN MILES                         <
>     HX     - HEAT INDEX                                  <
>     TC     - TEMPERATURE IN CELSIUS                      <
>     VRB    - VARIABLE WIND DIRECTION                     <
>                                                          <
>>>>>>>>>>>>>>>>>>>>>>>>>>>> KEY <<<<<<<<<<<<<<<<<<<<<<<<<<<




USA.gov is the U.S. government's official web portal to all federal, state and local government web resources and services.